Cambridge Niab, United Kingdom

4:10 AM GMT on January 18, 2017 (GMT +0000)
Cambridge

Weather History for EGSC - March, 2014

Change the Weather History Date:

Sunday, March 16, 2014

  Actual Average Record
Temperature  
Mean Temperature 54 °F -  
Max Temperature 60 °F 52 °F 64 °F (2005)
Min Temperature 48 °F 40 °F 33 °F (2003)
Degree Days  
Heating Degree Days 11    
Growing Degree Days 4 (Base 50)    
Moisture  
Dew Point 43 °F    
Average Humidity 62    
Maximum Humidity 82    
Minimum Humidity 51    
Precipitation  
Precipitation 0.00 in - - ()
Sea Level Pressure  
Sea Level Pressure 30.17 in    
Wind  
Wind Speed 13 mph ()    
Max Wind Speed 17 mph    
Max Gust Speed -    
Averages and records for this station are not official NWS values.
T = Trace of Precipitation, MM = Missing Value Source: Averaged Metar Reports

Daily Weather History Graph

Daily Weather History Graph

Search for Another Location

Airport or City:

Trip Planner

Search our weather history database for the weather conditions in past years. The results will help you decide how hot, cold, wet, or windy it might be!

Date:

Astronomy

Mar. 16, 2014 Rise Set
Actual Time 6:11 AM GMT 6:05 PM GMT
Civil Twilight 5:37 AM GMT 6:39 PM GMT
Nautical Twilight 4:58 AM GMT 7:18 PM GMT
Astronomical Twilight 4:17 AM GMT 7:59 PM GMT
Moon 6:12 PM GMT (3/16) 5:46 AM GMT (3/16)
Length of Visible Light 13h 01m
Length of Day
11h 53m
Full, 100% of the Moon is Illuminated
Mar 16
Full
Mar 16
Full
Mar 24
Last Quarter
Mar 30
New
Apr 7
First Quarter

Hourly Weather History & Observations

Time (GMT) Temp. Dew Point Humidity Pressure Visibility Wind Dir Wind Speed Gust Speed Precip Events Conditions
7:50 AM 48.2 °F 42.8 °F 82% 30.18 in - WSW 11.5 mph - N/A   Clear
8:20 AM 50.0 °F 42.8 °F 76% 30.21 in - West 15.0 mph - N/A   Clear
8:50 AM 50.0 °F 42.8 °F 76% 30.18 in - West 13.8 mph - N/A   Clear
9:20 AM 51.8 °F 42.8 °F 71% 30.18 in - West 16.1 mph - N/A   Clear
9:50 AM 53.6 °F 42.8 °F 67% 30.18 in - West 16.1 mph - N/A   Clear
10:20 AM 53.6 °F 39.2 °F 58% 30.18 in - West 15.0 mph - N/A   Clear
10:50 AM 55.4 °F 41.0 °F 58% 30.18 in - WSW 15.0 mph - N/A   Clear
11:20 AM 55.4 °F 42.8 °F 63% 30.18 in - WSW 12.7 mph - N/A   Clear
11:50 AM 57.2 °F 41.0 °F 55% 30.18 in - West 16.1 mph - N/A   Clear
12:20 PM 59.0 °F 41.0 °F 51% 30.18 in - West 17.3 mph - N/A   Clear
12:50 PM 59.0 °F 42.8 °F 55% 30.18 in - West 17.3 mph - N/A   Clear
1:20 PM 59.0 °F 42.8 °F 55% 30.18 in - West 17.3 mph - N/A   Clear
1:50 PM 59.0 °F 42.8 °F 55% 30.15 in - West 16.1 mph - N/A   Clear
2:20 PM 60.8 °F 42.8 °F 52% 30.15 in - West 15.0 mph - N/A   Clear
2:50 PM 60.8 °F 44.6 °F 55% 30.15 in - West 16.1 mph - N/A   Clear
3:20 PM 60.8 °F 44.6 °F 55% 30.15 in - West 17.3 mph - N/A   Clear
3:50 PM 60.8 °F 44.6 °F 55% 30.15 in - West 13.8 mph - N/A   Clear
4:20 PM 60.8 °F 44.6 °F 55% 30.15 in - West 16.1 mph - N/A   Clear
4:50 PM 59.0 °F 44.6 °F 59% 30.15 in - West 15.0 mph - N/A   Clear
5:20 PM 59.0 °F 44.6 °F 59% 30.15 in - West 15.0 mph - N/A   Clear
5:50 PM 57.2 °F 46.4 °F 67% 30.15 in - West 10.4 mph - N/A   Clear
6:20 PM 57.2 °F 46.4 °F 67% 30.15 in - WNW 10.4 mph - N/A   Clear
6:50 PM 55.4 °F 46.4 °F 72% 30.15 in - West 6.9 mph - N/A   Clear